FREGAT DEB, 46015

Orbit data source: Space-Track

FREGAT DEB, 46015 is space debris in LEO originally from a launch on Mon, 18 Jul 2011 UTC launched from the Tyuratam Missile And Space Complex (TTMTR). Debris objects in space refer to the collection of defunct objects orbiting the Earth. Examples of debris include non-operational satellites, rocket bodies, and fragments generated from explosions, collisions, or faulty payload assembly.

Loading next visibility...
Identifier
46015, 2011-037HS
Orbit
LEO
Country
Flag of CISCIS
Related business
Manufacturer
Lavochkin
Mission
Spacecraft
Bus & Motor
Unknown
Mass
Unknown
Launch date (UTC)
2011-07-18 (14 years ago)
Launch vehicle
Unknown
Launch site
Tyuratam Missile And Space Complex (TTMTR)
Object type
Payload
Rocket body
Debris
Shape & HBR
Unknown shape, 0.1 m
Radar Cross Section
Small (<0.1 m²)

Expand to show TLE details & history
Last TLE update: 15 hours ago

TLE from 15 hours ago
0 FREGAT DEB
1 46015U 11037HS  25286.95411726  .00075471  00000-0  13457-1 0  9991
2 46015  51.3544 176.5250 1356762  59.2335 313.5085 12.40534992221215
Epoch: 2025-10-13T22:53Z
TLE epoch observation values (Epoch: 2025-10-13T22:53:55.731Z)
Latitude
0.00001°
Longitude
170.29331°
Altitude
856.427 km
Speed
7.724 km/s
True Right ascension
11h 46m 06s
True Declination
0° 00' 00"
Sunlit
Object was in daylight at epoch
Visualization orbit readout
Latitude
Unknown
Longitude
Unknown
Altitude
Unknown
Speed
Unknown
Apparent Right ascension
Unknown
Apparent Declination
Unknown
Sunlit
N/A
Visualization observer readout
Local Sidereal Time
08:11:57
Azimuth
Unknown
Elevation
Unknown
Doppler factor
Unknown
Orbital elements
Apogee altitude
2,574.36 km
Perigee altitude
435.298 km
Semi-major axis
7,882.966 km
Eccentricity
0.13568
Inclination
51.3544°
RAAN
176.525°
Arg. of periapsis
59.2335°
True anomaly
300.8559°
Mean anomaly
313.5085°
Eccentric anomaly
307.32697°
Mean motion
3.10105 °/min
Orbital period
116.09 mins
BSTAR
0.013457
Loading maneuver chart data...
Computing Atmospheric mass density...
Loading historical data...
Loading historical data...
Loading historical data...
Loading historical data...
Loading historical data...
Loading historical data...
Loading historical data...

Documentation

Showing up to 5 results
|